Date String (YYYY-MM-DD hh:mm:ss) UTC,Instrument flags,absolute air pressure of the measurement (hPa),sample flow rate (lpm),inlet stack bypass flow (lpm),air temperature of the measurement (°C),ambient temperature measured by the external sensor (°C),aerosol sample conditioner tube jacket temperature (°C),OPC LED temperature (°C),internal box temperature (°C),relative humidity of the measurement (%),span deviation,mass concentration of particles derived from Lorenz-Mie calculation of OPC scattering (μg/m³),mass concentration of particles derived from Lorenz-Mie calculation of OPC scattering (μg/m³),mass concentration of particles derived from Lorenz-Mie calculation of OPC scattering (μg/m³)
DateTimeUTC,F1_M11,P_M11,Q1_M11,Q2_M11,T1_M11,T2_M11,T3_M11,T4_M11,T5_M11,U1_M11,ZSPAN_M11,X2_M11,X0_M11,X1_M11
2024-04-16 23:00:00,SystemResetWarning,0823.3,4.99,000.00,025.7,025.0,000.0,033.9,027.6,015.5,0000.0,0001.50,0005.58,0000.91
2024-04-16 23:01:00,SystemResetWarning,0823.3,5.00,000.00,025.7,025.1,000.0,033.9,027.6,015.5,0000.0,0001.56,0006.64,0000.94
2024-04-16 23:02:00,SystemResetWarning,0823.3,5.00,000.00,025.8,025.2,000.0,034.0,027.7,015.3,0000.0,0001.60,0006.60,0000.98
2024-04-16 23:03:00,SystemResetWarning,0823.3,5.00,000.00,025.8,025.2,000.0,034.0,027.7,015.3,0000.0,0001.63,0006.48,0001.03
2024-04-16 23:04:00,SystemResetWarning,0823.3,5.00,000.00,025.8,025.3,000.0,034.0,027.8,015.2,0000.0,0001.71,0006.53,0001.08
2024-04-16 23:05:00,SystemResetWarning,0823.3,4.99,000.00,025.9,025.3,000.0,034.1,027.8,015.1,0000.0,0001.77,0005.47,0001.13
2024-04-16 23:06:00,SystemResetWarning,0823.3,5.00,000.00,025.9,025.4,000.0,034.1,027.8,015.0,0000.0,0001.83,0005.38,0001.15
2024-04-16 23:07:00,SystemResetWarning,0823.2,5.00,000.00,026.0,025.4,000.0,034.1,027.9,014.2,0000.0,0001.83,0004.37,0001.20
2024-04-16 23:08:00,SystemResetWarning,0823.2,5.00,000.00,026.0,025.4,000.0,034.1,027.9,014.2,0000.0,0001.87,0004.43,0001.22
2024-04-16 23:09:00,SystemResetWarning,0823.2,5.00,000.00,026.0,025.5,000.0,034.2,028.0,014.0,0000.0,0001.91,0004.54,0001.25
2024-04-16 23:10:00,SystemResetWarning,0823.2,5.00,000.00,026.1,025.5,000.0,034.2,027.9,014.1,0000.0,0001.99,0004.63,0001.30
2024-04-16 23:11:00,SystemResetWarning,0823.1,4.99,000.00,025.9,023.7,000.0,034.3,027.0,014.0,0000.0,0002.05,0004.71,0001.36
2024-04-16 23:12:00,SystemResetWarning,0823.0,5.02,000.00,025.5,022.4,000.0,034.3,026.2,014.2,0000.0,0002.05,0003.65,0001.40
2024-04-16 23:13:00,SystemResetWarning,0823.0,4.99,000.00,025.3,022.5,000.0,034.2,026.1,014.5,0000.0,0002.14,0003.82,0001.45
2024-04-16 23:14:00,SystemResetWarning,0823.1,4.99,000.00,025.2,022.9,000.0,034.0,026.4,014.8,0000.0,0002.23,0005.68,0001.48
2024-04-16 23:15:00,SystemResetWarning,0823.1,5.02,000.00,025.2,023.2,000.0,033.9,026.7,014.9,0000.0,0002.29,0006.26,0001.51
2024-04-16 23:16:00,SystemResetWarning,0823.2,5.01,000.00,025.3,023.6,000.0,033.9,026.9,014.9,0000.0,0002.30,0006.37,0001.53
2024-04-16 23:17:00,SystemResetWarning,0823.2,4.99,000.00,025.3,023.8,000.0,033.9,027.0,014.8,0000.0,0002.32,0006.34,0001.57
2024-04-16 23:18:00,SystemResetWarning,0823.2,5.00,000.00,025.3,024.1,000.0,033.9,027.1,014.9,0000.0,0002.42,0006.87,0001.59
2024-04-16 23:19:00,SystemResetWarning,0823.2,5.00,000.00,025.4,024.3,000.0,033.8,027.2,014.9,0000.0,0002.51,0007.85,0001.62
2024-04-16 23:20:00,SystemResetWarning,0823.1,5.00,000.00,025.4,024.5,000.0,033.8,027.3,015.0,0000.0,0002.56,0008.52,0001.65
2024-04-16 23:21:00,SystemResetWarning,0823.1,5.01,000.00,025.5,024.6,000.0,033.8,027.4,014.9,0000.0,0002.56,0009.35,0001.66
2024-04-16 23:22:00,SystemResetWarning,0823.0,5.01,000.00,025.5,024.8,000.0,033.9,027.4,015.0,0000.0,0002.53,0009.35,0001.66
2024-04-16 23:23:00,SystemResetWarning,0823.1,5.00,000.00,025.6,024.9,000.0,033.9,027.5,014.9,0000.0,0002.56,0009.36,0001.67
2024-04-16 23:24:00,SystemResetWarning,0823.0,5.00,000.00,025.6,025.0,000.0,033.9,027.6,014.8,0000.0,0002.56,0009.24,0001.67
2024-04-16 23:25:00,SystemResetWarning,0823.0,5.00,000.00,025.7,025.1,000.0,033.9,027.6,014.8,0000.0,0002.51,0008.29,0001.66
2024-04-16 23:26:00,SystemResetWarning,0822.8,5.00,000.00,025.7,025.2,000.0,033.9,027.7,014.6,0000.0,0002.54,0008.17,0001.67
2024-04-16 23:27:00,SystemResetWarning,0822.8,5.01,000.00,025.8,025.2,000.0,034.0,027.7,014.4,0000.0,0002.59,0008.35,0001.68
2024-04-16 23:28:00,SystemResetWarning,0822.8,5.00,000.00,025.8,025.3,000.0,034.0,027.8,014.3,0000.0,0002.57,0009.08,0001.66
2024-04-16 23:29:00,SystemResetWarning,0823.0,5.00,000.00,025.9,025.3,000.0,034.0,027.8,014.3,0000.0,0002.58,0009.31,0001.67
2024-04-16 23:30:00,SystemResetWarning,0822.9,5.00,000.00,025.9,025.4,000.0,034.0,027.8,014.4,0000.0,0002.53,0009.07,0001.67
2024-04-16 23:31:00,SystemResetWarning,0823.0,5.00,000.00,026.0,025.4,000.0,034.1,027.9,014.4,0000.0,0002.51,0008.70,0001.68
2024-04-16 23:32:00,SystemResetWarning,0822.9,5.00,000.00,026.0,025.5,000.0,034.1,027.9,014.6,0000.0,0002.51,0007.90,0001.68
2024-04-16 23:33:00,SystemResetWarning,0823.0,4.99,000.00,026.0,024.6,000.0,034.2,027.4,014.5,0000.0,0002.53,0007.64,0001.68
2024-04-16 23:34:00,SystemResetWarning,0822.9,5.01,000.00,025.5,022.5,000.0,034.2,026.3,014.8,0000.0,0002.56,0008.09,0001.69
2024-04-16 23:35:00,SystemResetWarning,0822.8,5.01,000.00,025.3,022.4,000.0,034.2,026.1,015.2,0000.0,0002.58,0008.22,0001.70
2024-04-16 23:36:00,SystemResetWarning,0822.6,4.99,000.00,025.2,022.7,000.0,034.0,026.3,014.9,0000.0,0002.65,0008.68,0001.70
2024-04-16 23:37:00,SystemResetWarning,0822.6,5.00,000.00,025.2,023.1,000.0,033.9,026.6,014.8,0000.0,0002.72,0009.27,0001.71
2024-04-16 23:38:00,SystemResetWarning,0822.7,5.00,000.00,025.2,023.4,000.0,033.9,026.8,014.7,0000.0,0002.72,0009.47,0001.70
2024-04-16 23:39:00,SystemResetWarning,0823.0,4.99,000.00,025.2,023.7,000.0,033.8,026.9,014.7,0000.0,0002.78,0009.28,0001.71
2024-04-16 23:40:00,SystemResetWarning,0822.8,4.99,000.00,025.3,024.0,000.0,033.8,027.1,014.8,0000.0,0002.87,0009.06,0001.75
2024-04-16 23:41:00,SystemResetWarning,0822.9,5.00,000.00,025.3,024.2,000.0,033.8,027.2,014.8,0000.0,0002.94,0009.60,0001.76
2024-04-16 23:42:00,SystemResetWarning,0823.0,5.00,000.00,025.4,024.4,000.0,033.8,027.3,014.9,0000.0,0003.05,0010.95,0001.78
2024-04-16 23:43:00,SystemResetWarning,0822.6,5.00,000.00,025.4,024.6,000.0,033.8,027.3,014.5,0000.0,0003.13,0011.52,0001.79
2024-04-16 23:44:00,SystemResetWarning,0822.8,5.01,000.00,025.5,024.7,000.0,033.8,027.4,014.4,0000.0,0003.19,0011.45,0001.82
2024-04-16 23:45:00,SystemResetWarning,0822.9,5.00,000.00,025.5,024.8,000.0,033.8,027.4,014.6,0000.0,0003.24,0011.40,0001.84
2024-04-16 23:46:00,SystemResetWarning,0822.7,4.99,000.00,025.6,024.9,000.0,033.8,027.5,014.4,0000.0,0003.28,0011.97,0001.86
2024-04-16 23:47:00,SystemResetWarning,0822.8,4.99,000.00,025.6,025.0,000.0,033.8,027.6,014.3,0000.0,0003.34,0012.23,0001.88
2024-04-16 23:48:00,SystemResetWarning,0822.7,4.99,000.00,025.7,025.1,000.0,033.9,027.6,014.3,0000.0,0003.41,0012.05,0001.93
2024-04-16 23:49:00,SystemResetWarning,0823.0,5.00,000.00,025.7,025.1,000.0,033.9,027.6,014.2,0000.0,0003.48,0012.18,0001.95
2024-04-16 23:50:00,SystemResetWarning,0822.8,5.01,000.00,025.8,025.2,000.0,033.9,027.7,014.2,0000.0,0003.47,0011.88,0001.97
2024-04-16 23:51:00,SystemResetWarning,0823.0,5.00,000.00,025.8,025.3,000.0,034.0,027.8,014.0,0000.0,0003.48,0012.07,0001.98
2024-04-16 23:52:00,SystemResetWarning,0822.9,5.01,000.00,025.8,025.3,000.0,034.0,027.8,013.9,0000.0,0003.46,0011.76,0001.98
2024-04-16 23:53:00,SystemResetWarning,0822.9,5.01,000.00,025.9,025.4,000.0,034.0,027.8,013.9,0000.0,0003.46,0010.28,0001.99
2024-04-16 23:54:00,SystemResetWarning,0822.9,5.00,000.00,025.9,025.4,000.0,034.1,027.9,013.7,0000.0,0003.46,0010.43,0002.01
2024-04-16 23:55:00,SystemResetWarning,0823.0,4.99,000.00,026.0,025.4,000.0,034.1,027.9,013.6,0000.0,0003.43,0010.61,0002.00
2024-04-16 23:56:00,SystemResetWarning,0822.8,4.99,000.00,026.0,025.5,000.0,034.1,027.9,013.5,0000.0,0003.39,0010.38,0002.00
2024-04-16 23:57:00,SystemResetWarning,0823.0,5.00,000.00,026.0,025.4,000.0,034.2,027.9,013.6,0000.0,0003.36,0009.72,0002.01
2024-04-16 23:58:00,SystemResetWarning,0822.9,5.00,000.00,025.8,023.5,000.0,034.2,026.8,013.8,0000.0,0003.32,0009.72,0002.01
2024-04-16 23:59:00,SystemResetWarning,0822.7,5.02,000.00,025.4,022.4,000.0,034.2,026.1,013.9,0000.0,0003.30,0010.05,0002.01
